THOR ABLESTAR DEB, 715

Orbit data source: Space-Track

THOR ABLESTAR DEB, 715 is space debris in LEO originally from a launch on Thu, 05 Dec 1963 UTC launched from the Air Force Western Test Range (AFWTR). Debris objects in space refer to the collection of defunct objects orbiting the Earth. Examples of debris include non-operational satellites, rocket bodies, and fragments generated from explosions, collisions, or faulty payload assembly.

Loading next visibility...
Identifier
715, 1963-049E
Orbit
LEO
Country
Flag of USUS
Related business
Manufacturer
Unknown
Mission
Spacecraft
Bus & Motor
Unknown
Mass
Unknown
Launch date (UTC)
1963-12-05 (63 years ago)
Launch vehicle
Unknown
Launch site
Air Force Western Test Range (AFWTR)
Object type
Payload
Rocket body
Debris
Shape & HBR
Unknown shape, 0.1 m
Radar Cross Section
Medium (>0.1 m² and <1 m²)

Expand to show TLE details & history
Last TLE update: 18 hours ago

TLE from 18 hours ago
0 THOR ABLESTAR DEB
1 00715U 63049E   26236.04703900  .00000558  00000-0  56572-3 0  9993
2 00715  89.9046  76.8696 0028277 323.4749 189.6160 13.75712433112710
Epoch: 2026-08-24T01:07Z
TLE epoch observation values (Epoch: 2026-08-24T01:07:44.169Z)
Latitude
26.99819°
Longitude
-92.44715°
Altitude
1,003.033 km
Speed
7.342 km/s
True Right ascension
17h 07m 17s
True Declination
26° 51' 50"
Sunlit
Object was in daylight at epoch
Visualization orbit readout
Latitude
Unknown
Longitude
Unknown
Altitude
Unknown
Speed
Unknown
Apparent Right ascension
Unknown
Apparent Declination
Unknown
Sunlit
N/A
Visualization observer readout
Local Sidereal Time
10:27:09
Azimuth
Unknown
Elevation
Unknown
Doppler factor
Unknown
Orbital elements
Apogee altitude
996.942 km
Perigee altitude
955.35 km
Semi-major axis
7,354.283 km
Eccentricity
0.00283
Inclination
89.9046°
RAAN
76.8696°
Arg. of periapsis
323.4749°
True anomaly
189.56206°
Mean anomaly
189.616°
Eccentric anomaly
189.58901°
Mean motion
3.44138 °/min
Orbital period
104.61 mins
BSTAR
0.00056572
Loading maneuver chart data...
Computing Atmospheric mass density...
Loading historical data...
Loading historical data...
Loading historical data...
Loading historical data...
Loading historical data...
Loading historical data...
Loading historical data...

Documentation

Showing up to 5 results
|